AS259 Weather Reports


Display with metric or nautical units.
time (UTC)temp
F
wind
direction
speed
MPH
gust
MPH
rain 1hr
in
rain 24hr
in
rain mn
in
humidity
%
barometer
mb
20260504203517 85 284 3.0 20.0 0.00 0.00 0.00 25 1003.0
20260504202518 85 293 2.0 20.0 0.00 0.00 0.00 26 1003.0
20260504201552 86 0.0 0.0 0.00 0.00 0.00 26 1002.9
20260504200527 86 293 0.0 3.0 0.00 0.00 0.00 26 1002.8
20260504195524 85 293 0.0 3.0 0.00 0.00 0.00 25 1002.8
20260504194519 85 0.0 0.0 0.00 0.00 0.00 26 1002.9
20260504193528 86 300 0.0 3.0 0.00 0.00 0.00 25 1002.7
20260504192524 86 290 3.0 14.0 0.00 0.00 0.00 24 1002.4
20260504191519 86 293 0.0 5.0 0.00 0.00 0.00 23 1002.4
20260504190545 87 0.0 0.0 0.00 0.00 0.00 24 1002.4
20260504185517 87 0.0 0.0 0.00 0.00 0.00 23 1002.4
20260504184519 86 0.0 0.0 0.00 0.00 0.00 23 1002.4
20260504183533 86 275 1.0 10.0 0.00 0.00 0.00 23 1002.2
20260504182528 87 0.0 0.0 0.00 0.00 0.00 22 1002.4
20260504181524 86 0.0 0.0 0.00 0.00 0.00 23 1002.6
20260504180519 85 279 1.0 11.0 0.00 0.00 0.00 24 1002.6
20260504175534 84 280 1.0 10.0 0.00 0.00 0.00 23 1002.6
20260504174528 85 277 5.0 25.0 0.00 0.00 0.00 23 1002.8
20260504173524 85 135 1.0 5.0 0.00 0.00 0.00 24 1002.7
20260504172520 85 269 6.0 27.0 0.00 0.00 0.00 25 1002.8
20260504171530 84 0.0 0.0 0.00 0.00 0.00 27 1002.9
20260504170521 85 286 8.0 22.0 0.00 0.00 0.00 27 1003.1
20260504150539 75 0.0 0.0 0.00 0.00 0.00 35 1003.0
20260504140529 70 0.0 0.0 0.00 0.00 0.00 39 1003.4
20260504130520 65 0.0 0.0 0.00 0.00 0.00 50 1003.2
20260504110534 53 0.0 0.0 0.00 0.00 0.00 62 1003.0
20260504100529 53 0.0 0.0 0.00 0.00 0.00 58 1003.4
20260504081533 56 0.0 0.0 0.00 0.00 0.00 53 1004.8
20260504080529 56 0.0 0.0 0.00 0.00 0.00 53 1004.8
20260504050532 61 0.0 0.0 0.00 0.00 0.00 50 1007.3
20260504045528 62 0.0 0.0 0.00 0.00 0.00 48 1007.4
20260504044543 63 0.0 0.0 0.00 0.00 0.00 46 1007.4
20260504043539 63 0.0 0.0 0.00 0.00 0.00 46 1007.9
20260504042532 63 0.0 0.0 0.00 0.00 0.00 46 1007.6
20260504041527 64 0.0 0.0 0.00 0.00 0.00 45 1007.9
20260504040522 64 0.0 0.0 0.00 0.00 0.00 44 1007.9
20260504035538 65 0.0 0.0 0.00 0.00 0.00 43 1008.0
20260504034525 65 0.0 0.0 0.00 0.00 0.00 44 1008.1
20260504033517 66 0.0 0.0 0.00 0.00 0.00 42 1008.2
20260504032538 66 0.0 0.0 0.00 0.00 0.00 42 1008.2
20260504031531 67 0.0 0.0 0.00 0.00 0.00 41 1008.4
20260504030526 67 0.0 0.0 0.00 0.00 0.00 41 1008.4
20260504025523 67 0.0 0.0 0.00 0.00 0.00 39 1008.4
20260504024527 68 0.0 0.0 0.00 0.00 0.00 38 1008.4
20260504023532 68 0.0 0.0 0.00 0.00 0.00 37 1008.6
20260504022526 69 0.0 0.0 0.00 0.00 0.00 37 1008.6
20260504021520 69 0.0 0.0 0.00 0.00 0.00 37 1008.6
20260504020530 71 0.0 0.0 0.00 0.00 0.00 35 1008.7
20260504015520 71 0.0 0.0 0.00 0.00 0.00 34 1008.7
20260504014540 73 0.0 0.0 0.00 0.00 0.00 33 1008.6
20260504013554 74 0.0 0.0 0.00 0.00 0.00 30 1008.6
20260504012529 75 0.0 0.0 0.00 0.00 0.00 29 1008.6
20260504011524 77 0.0 0.0 0.00 0.00 0.00 28 1008.8
20260504010520 77 0.0 0.0 0.00 0.00 0.00 27 1008.9
20260504005536 78 0.0 0.0 0.00 0.00 0.00 26 1009.0
20260504004530 79 0.0 0.0 0.00 0.00 0.00 25 1009.1
20260504003526 80 0.0 0.0 0.00 0.00 0.00 24 1009.0
20260504002521 82 0.0 0.0 0.00 0.00 0.00 23 1009.1
20260504001532 81 0.0 0.0 0.00 0.00 0.00 24 1009.1
20260504000523 80 0.0 0.0 0.00 0.00 0.00 25 1009.3
20260503235542 82 0.0 0.0 0.00 0.00 0.00 23 1009.3
20260503234518 84 0.0 0.0 0.00 0.00 0.00 22 1009.4
20260503233531 82 0.0 0.0 0.00 0.00 0.00 23 1009.5
20260503232527 84 0.0 0.0 0.00 0.00 0.00 22 1009.5
20260503231523 83 0.0 0.0 0.00 0.00 0.00 22 1009.5
20260503230532 84 0.0 0.0 0.00 0.00 0.00 22 1009.6
20260503225527 83 0.0 0.0 0.00 0.00 0.00 21 1009.5
20260503224523 85 0.0 0.0 0.00 0.00 0.00 22 1009.4
20260503223532 85 0.0 0.0 0.00 0.00 0.00 21 1009.6
20260503222602 83 0.0 0.0 0.00 0.00 0.00 22 1009.6
20260503221521 82 0.0 0.0 0.00 0.00 0.00 22 1009.6
20260503220517 82 283 1.0 5.0 0.00 0.00 0.00 22 1009.8
20260503215551 82 0.0 0.0 0.00 0.00 0.00 23 1009.8
20260503214527 81 0.0 0.0 0.00 0.00 0.00 23 1009.9
20260503213522 81 0.0 0.0 0.00 0.00 0.00 22 1010.2
20260503212517 81 0.0 0.0 0.00 0.00 0.00 24 1010.4
20260503211532 82 0.0 0.0 0.00 0.00 0.00 22 1010.5
20260503210526 83 0.0 0.0 0.00 0.00 0.00 22 1010.7
20260503205522 82 0.0 0.0 0.00 0.00 0.00 23 1010.9
20260503204532 82 0.0 0.0 0.00 0.00 0.00 23 1011.0